This demonstration page uses our WeatherBlox Daily Observations layout. Learn more.

Left ArrowRight Arrow

31.84235, -102.49876

Hourly Observations for November 28, 2015

Temp ( °F °C ) Dew Point ( °F °C ) Humidity (%) Winds ( mph kmh ) Pressure ( in mb ) Visibility ( mi km ) Precip ( " mm )
12:02 am 00:02 Cloudy with Light Freezing Rain 33 0.6 30 -1.1 89 89 NNE 14 22 30.36 1028 7 11 0.00 0.03
12:35 am 00:35 Cloudy with Light Freezing Rain 33 0.6 30 -1.1 89 89 NNE 7 11 30.36 1028 10 16 0.01 0.25
12:53 am 00:53 Cloudy with Freezing Rain 33 0.6 30 -1.1 89 89 NE 9 15 30.28 1025 6 10 0.03 0.76
1:03 am 01:03 Cloudy with Rain 33 0.6 30 -1.1 89 89 NE 9 15 30.36 1028 5 8 0.02 0.51
1:12 am 01:12 Cloudy with Light Freezing Rain 33 0.6 30 -1.1 89 89 NNE 9 15 30.36 1028 5 8 0.03 0.76
1:19 am 01:19 Cloudy with Freezing Rain 33 0.6 30 -1.1 89 89 NNE 8 13 30.36 1028 4 6 0.05 1.27
1:30 am 01:30 Cloudy with Freezing Rain 33 0.6 30 -1.1 89 89 N 9 15 30.36 1028 4 6 0.07 1.78
1:40 am 01:40 Cloudy with Freezing Rain 33 0.6 30 -1.1 89 89 NNE 9 15 30.36 1028 4 6 0.09 2.29
1:46 am 01:46 Cloudy with Light Freezing Rain 33 0.6 30 -1.1 89 89 NNE 9 15 30.36 1028 6 10 0.09 2.29
1:53 am 01:53 Cloudy with Light Freezing Rain 33 0.6 30 -1.1 89 89 NNE 7 11 30.28 1025 7 11 0.10 2.54
2:07 am 02:07 Cloudy with Light Freezing Rain 33 0.6 30 -1.1 89 89 N 6 9 30.39 1029 6 10 0.01 0.25
2:12 am 02:12 Cloudy with Light Freezing Rain 33 0.6 30 -1.1 89 89 N 6 9 30.39 1029 5 8 0.01 0.25
2:22 am 02:22 Cloudy with Freezing Rain 33 0.6 30 -1.1 89 89 N 8 13 30.36 1028 6 10 0.02 0.51
2:29 am 02:29 Cloudy with Light Freezing Rain 33 0.6 30 -1.1 89 89 N 8 13 30.36 1028 5 8 0.03 0.76
2:53 am 02:53 Cloudy with Light Freezing Rain 33 0.6 30 -1.1 89 89 NNE 10 17 30.24 1024 8 13 0.04 1.02
3:05 am 03:05 Cloudy with Light Freezing Rain 33 0.6 30 -1.1 89 89 NNE 13 20 30.33 1027 5 8 0.01 0.25
3:53 am 03:53 Cloudy with Light Rain 33 0.6 30 -1.1 89 89 NNE 8 13 30.27 1025 10 16 0.02 0.51
4:04 am 04:04 Cloudy with Light Freezing Rain 33 0.6 30 -1.1 89 89 N 7 11 30.36 1028 7 11 0.01 0.25
4:23 am 04:23 Cloudy with Light Rain 33 0.6 30 -1.1 89 89 N 9 15 30.36 1028 9 14 0.01 0.25
4:53 am 04:53 Cloudy with Light Rain 33 0.6 30 -1.1 89 89 N 9 15 30.26 1025 8 13 0.02 0.51
5:13 am 05:13 Cloudy with Rain 33 0.6 30 -1.1 89 89 N 10 17 30.33 1027 5 8 0.04 1.02
5:40 am 05:40 Cloudy with Light Rain 33 0.6 30 -1.1 89 89 NNE 9 15 30.33 1027 8 13 0.05 1.27
5:53 am 05:53 Cloudy with Light Rain 33 0.6 30 -1.1 89 89 NNE 8 13 30.25 1024 7 11 0.05 1.27
6:43 am 06:43 Cloudy with Light Rain 33 0.6 30 -1.1 89 89 NE 9 15 30.33 1027 10 16 0.01 0.25
6:53 am 06:53 Cloudy 33 0.6 30 -1.1 89 89 NE 8 13 30.25 1025 10 16 0.01 0.25
7:01 am 07:01 Cloudy 33 0.6 30 -1.1 89 89 NNE 7 11 30.33 1027 10 16 0.00 0.00
7:53 am 07:53 Cloudy with Light Rain 33 0.6 30 -1.1 89 89 NNE 8 13 30.26 1025 8 13 0.00 0.03
8:22 am 08:22 Cloudy with Light Rain 33 0.6 30 -1.1 89 89 NNE 8 13 30.36 1028 7 11 0.01 0.25
8:29 am 08:29 Cloudy with Light Rain 33 0.6 30 -1.1 89 89 N 7 11 30.36 1028 8 13 0.01 0.25
8:37 am 08:37 Cloudy with Light Rain 33 0.6 30 -1.1 89 89 NNE 7 11 30.36 1028 6 10 0.01 0.25
8:53 am 08:53 Cloudy with Light Rain 33 0.6 31 -0.6 92 92 NNE 8 13 30.28 1025 7 11 0.02 0.51
9:53 am 09:53 Cloudy with Light Rain 34 1.1 31 -0.6 89 89 N 7 11 30.30 1026 7 11 0.01 0.25
10:08 am 10:08 Cloudy with Light Rain 34 1.1 31 -0.6 89 89 N 6 9 30.39 1029 8 13 0.00 0.03
10:16 am 10:16 Cloudy with Light Rain 34 1.1 31 -0.6 89 89 N 6 9 30.39 1029 10 16 0.00 0.03
10:25 am 10:25 Cloudy with Light Rain 34 1.1 31 -0.6 89 89 N 6 9 30.39 1029 10 16 0.00 0.03
10:53 am 10:53 Cloudy with Light Rain 35 1.7 31 -0.6 85 85 NNE 9 15 30.29 1026 4 6 0.01 0.25
11:02 am 11:02 Cloudy with Light Rain 35 1.7 31 -0.6 85 85 NE 10 17 30.36 1028 6 10 0.00 0.03
11:20 am 11:20 Cloudy with Light Rain 35 1.7 31 -0.6 85 85 NNE 9 15 30.36 1028 8 13 0.00 0.03
11:38 am 11:38 Cloudy with Light Rain 35 1.7 31 -0.6 85 85 NE 9 15 30.36 1028 10 16 0.00 0.03
11:53 am 11:53 Cloudy with Light Rain 35 1.7 31 -0.6 85 85 NNE 6 9 30.29 1026 10 16 0.00 0.03
12:32 pm 12:32 Cloudy 35 1.7 31 -0.6 85 85 ENE 8 13 30.33 1027 10 16 0.00 0.03
12:53 pm 12:53 Cloudy with Light Rain 36 2.2 31 -0.6 82 82 NNE 6 9 30.25 1024 10 16 0.00 0.03
1:01 pm 13:01 Cloudy with Light Rain 35 1.7 31 -0.6 85 85 NNE 6 9 30.33 1027 10 16 0.00 0.03
1:51 pm 13:51 Cloudy with Light Rain 36 2 30 -1 81 81 N 8 13 30.33 1027 10 16 0.00 0.03
1:53 pm 13:53 Cloudy with Light Rain 36 2.2 32 0 86 86 N 6 9 30.23 1024 9 14 0.00 0.03
2:53 pm 14:53 Cloudy 36 2.2 32 0 86 86 NNE 7 11 30.20 1023 10 16 0.00 0.03
3:53 pm 15:53 Cloudy with Light Rain 37 2.8 31 -0.6 79 79 NNE 7 11 30.20 1023 10 16 0.00 0.03
4:36 pm 16:36 Cloudy 36 2.2 32 0 86 86 NNE 9 15 30.30 1026 10 16 0.00 0.03
4:53 pm 16:53 Cloudy with Light Rain 36 2.2 32 0 86 86 N 8 13 30.21 1023 10 16 0.00 0.03
5:09 pm 17:09 Cloudy with Light Rain 37 2.8 32 0 82 82 N 5 7 30.27 1025 10 16 0.00 0.03
5:53 pm 17:53 Cloudy with Light Rain 36 2.2 32 0 86 86 NE 7 11 30.21 1023 10 16 0.01 0.25
6:08 pm 18:08 Cloudy with Light Rain 36 2.2 32 0 86 86 NE 9 15 30.30 1026 10 16 0.00 0.03
6:44 pm 18:44 Cloudy 36 2.2 32 0 86 86 NE 7 11 30.30 1026 10 16 0.00 0.03
6:53 pm 18:53 Cloudy 36 2.2 33 0.6 89 89 NNE 3 6 30.23 1024 10 16 0.00 0.03
7:10 pm 19:10 Cloudy 37 2.8 32 0 82 82 NE 6 9 30.27 1025 10 16 0.00 0.00
7:53 pm 19:53 Cloudy 37 2.8 33 0.6 86 86 ENE 6 9 30.21 1023 10 16 0.00 0.00
8:34 pm 20:34 Cloudy 37 2.8 33 0.6 86 86 ENE 3 6 30.30 1026 10 16 0.00 0.00
8:53 pm 20:53 Cloudy with Light Rain 37 2.8 33 0.6 86 86 ENE 6 9 30.23 1024 10 16 0.00 0.03
9:20 pm 21:20 Cloudy with Light Rain 37 2.8 33 0.6 86 86 Calm 30.30 1026 10 16 0.00 0.03
9:28 pm 21:28 Cloudy 37 2.8 33 0.6 86 86 ENE 6 9 30.30 1026 10 16 0.00 0.03
9:42 pm 21:42 Cloudy with Light Rain 37 2.8 33 0.6 86 86 ENE 5 7 30.30 1026 10 16 0.00 0.03
9:53 pm 21:53 Cloudy with Light Rain 37 2.8 33 0.6 86 86 Calm 30.24 1024 10 16 0.00 0.03
10:08 pm 22:08 Cloudy with Light Rain 37 2.8 33 0.6 86 86 E 6 9 30.30 1026 10 16 0.00 0.03
10:38 pm 22:38 Cloudy with Light Rain 37 2.8 33 0.6 86 86 Calm 30.30 1026 10 16 0.01 0.25
10:53 pm 22:53 Cloudy 37 2.8 33 0.6 86 86 NE 5 7 30.22 1023 10 16 0.01 0.25
11:53 pm 23:53 Cloudy with Light Rain 37 2.8 34 1.1 89 89 NNE 6 9 30.21 1023 6 10 0.05 1.27

Powered by AerisWeather